N244AA KDEN-KCOS

Flight info

Callsign N244AA
Flight time 0h 33m
Altitude VFR
Route FF/WEST
Aircraft PA28/L-VGD/C

Departure

Time 2026-04-12 03:59
Airport Denver International Airport (KDEN)

Arrival

Time 2026-04-12 04:33
Airport City of Colorado Springs Municipal Airport (KCOS)
Time Latitude Longitude Altitude Speed Heading
2026-04-12 03:59 39.83098 -105.13560 8437 ft 78 kts 184°
2026-04-12 03:59 39.82545 -105.13503 8553 ft 80 kts 188°
2026-04-12 03:59 39.81998 -105.13510 8705 ft 79 kts 188°
2026-04-12 04:00 39.81435 -105.13408 8840 ft 81 kts 178°
2026-04-12 04:00 39.80871 -105.13238 8956 ft 84 kts 180°
2026-04-12 04:00 39.80315 -105.13071 9105 ft 83 kts 179°
2026-04-12 04:00 39.79749 -105.12928 9263 ft 79 kts 184°
2026-04-12 04:01 39.79181 -105.12789 9347 ft 85 kts 184°
2026-04-12 04:01 39.78603 -105.12688 9509 ft 80 kts 186°
2026-04-12 04:01 39.78026 -105.12543 9579 ft 89 kts 177°
2026-04-12 04:01 39.77387 -105.12333 9613 ft 100 kts 175°
2026-04-12 04:02 39.76674 -105.12087 9609 ft 111 kts 176°
2026-04-12 04:02 39.75064 -105.11601 9571 ft 124 kts 177°
2026-04-12 04:02 39.74220 -105.11419 9576 ft 123 kts 181°
2026-04-12 04:03 39.73368 -105.11264 9587 ft 123 kts 182°
2026-04-12 04:03 39.72509 -105.11144 9575 ft 126 kts 182°
2026-04-12 04:03 39.71636 -105.10995 9578 ft 127 kts 181°
2026-04-12 04:03 39.70752 -105.10849 9580 ft 127 kts 181°
2026-04-12 04:04 39.69875 -105.10699 9584 ft 128 kts 181°
2026-04-12 04:04 39.68998 -105.10552 9587 ft 126 kts 182°
2026-04-12 04:04 39.68123 -105.10402 9607 ft 126 kts 182°
2026-04-12 04:04 39.67252 -105.10258 9616 ft 124 kts 182°
2026-04-12 04:05 39.66402 -105.10062 9619 ft 126 kts 173°
2026-04-12 04:05 39.65575 -105.09699 9627 ft 125 kts 169°
2026-04-12 04:05 39.64750 -105.09324 9639 ft 125 kts 169°
2026-04-12 04:05 39.63926 -105.08946 9620 ft 126 kts 169°
2026-04-12 04:06 39.63100 -105.08564 9584 ft 128 kts 169°
2026-04-12 04:06 39.62246 -105.08167 9525 ft 130 kts 169°
2026-04-12 04:06 39.61398 -105.07770 9528 ft 127 kts 168°
2026-04-12 04:06 39.60570 -105.07379 9523 ft 126 kts 169°
2026-04-12 04:07 39.59738 -105.06988 9531 ft 126 kts 168°
2026-04-12 04:07 39.58913 -105.06600 9522 ft 126 kts 169°
2026-04-12 04:07 39.58091 -105.06213 9526 ft 126 kts 169°
2026-04-12 04:07 39.57263 -105.05823 9526 ft 125 kts 169°
2026-04-12 04:08 39.56447 -105.05438 9535 ft 124 kts 168°
2026-04-12 04:08 39.55635 -105.05054 9537 ft 124 kts 169°
2026-04-12 04:08 39.54827 -105.04674 9545 ft 123 kts 170°
2026-04-12 04:08 39.54020 -105.04294 9553 ft 122 kts 169°
2026-04-12 04:09 39.53224 -105.03919 9568 ft 121 kts 169°
2026-04-12 04:09 39.52422 -105.03541 9567 ft 123 kts 170°
2026-04-12 04:09 39.51613 -105.03162 9562 ft 124 kts 169°
2026-04-12 04:09 39.50796 -105.02778 9549 ft 125 kts 170°
2026-04-12 04:10 39.49973 -105.02392 9547 ft 125 kts 169°
2026-04-12 04:10 39.49145 -105.02002 9546 ft 125 kts 168°
2026-04-12 04:10 39.48330 -105.01619 9550 ft 125 kts 169°
2026-04-12 04:10 39.47507 -105.01231 9539 ft 126 kts 169°
2026-04-12 04:11 39.46677 -105.00841 9546 ft 125 kts 169°
2026-04-12 04:11 39.45859 -105.00457 9550 ft 124 kts 169°
2026-04-12 04:11 39.45045 -105.00075 9554 ft 125 kts 169°
2026-04-12 04:11 39.44226 -104.99691 9549 ft 126 kts 169°
2026-04-12 04:12 39.43406 -104.99306 9549 ft 126 kts 170°
2026-04-12 04:12 39.42582 -104.98918 9559 ft 124 kts 170°
2026-04-12 04:12 39.41773 -104.98538 9570 ft 124 kts 169°
2026-04-12 04:12 39.40960 -104.98155 9582 ft 123 kts 170°
2026-04-12 04:13 39.40158 -104.97780 9597 ft 122 kts 169°
2026-04-12 04:13 39.39360 -104.97406 9600 ft 123 kts 169°
2026-04-12 04:13 39.38549 -104.97026 9594 ft 125 kts 170°
2026-04-12 04:13 39.37729 -104.96641 9594 ft 125 kts 170°
2026-04-12 04:14 39.36894 -104.96252 9587 ft 126 kts 169°
2026-04-12 04:14 39.36068 -104.95865 9588 ft 126 kts 169°
2026-04-12 04:14 39.35244 -104.95479 9590 ft 126 kts 168°
2026-04-12 04:14 39.34420 -104.95093 9593 ft 126 kts 170°
2026-04-12 04:15 39.33591 -104.94705 9602 ft 125 kts 169°
2026-04-12 04:15 39.32780 -104.94325 9616 ft 124 kts 170°
2026-04-12 04:15 39.31962 -104.93942 9624 ft 125 kts 169°
2026-04-12 04:15 39.31137 -104.93555 9625 ft 125 kts 169°
2026-04-12 04:16 39.30327 -104.93177 9631 ft 124 kts 169°
2026-04-12 04:16 39.29507 -104.92793 9640 ft 124 kts 170°
2026-04-12 04:16 39.28695 -104.92414 9659 ft 124 kts 169°
2026-04-12 04:16 39.27885 -104.92034 9666 ft 124 kts 170°
2026-04-12 04:17 39.27066 -104.91653 9663 ft 125 kts 169°
2026-04-12 04:17 39.26235 -104.91264 9662 ft 126 kts 169°
2026-04-12 04:17 39.25408 -104.90877 9656 ft 127 kts 169°
2026-04-12 04:17 39.24578 -104.90487 9652 ft 127 kts 169°
2026-04-12 04:18 39.23751 -104.90101 9654 ft 127 kts 169°
2026-04-12 04:18 39.22917 -104.89710 9656 ft 126 kts 170°
2026-04-12 04:18 39.22095 -104.89326 9661 ft 125 kts 170°
2026-04-12 04:18 39.21281 -104.88946 9668 ft 125 kts 170°
2026-04-12 04:19 39.20449 -104.88558 9674 ft 126 kts 170°
2026-04-12 04:19 39.19620 -104.88172 9676 ft 126 kts 169°
2026-04-12 04:19 39.18803 -104.87792 9683 ft 125 kts 168°
2026-04-12 04:19 39.17985 -104.87410 9690 ft 125 kts 168°
2026-04-12 04:20 39.17157 -104.87025 9687 ft 126 kts 169°
2026-04-12 04:20 39.16336 -104.86638 9687 ft 126 kts 167°
2026-04-12 04:20 39.15590 -104.85958 9691 ft 132 kts 149°
2026-04-12 04:20 39.14888 -104.85188 9695 ft 132 kts 148°
2026-04-12 04:21 39.14187 -104.84418 9705 ft 133 kts 148°
2026-04-12 04:21 39.13484 -104.83650 9698 ft 134 kts 148°
2026-04-12 04:21 39.12761 -104.82870 9689 ft 135 kts 148°
2026-04-12 04:21 39.12046 -104.82103 9682 ft 134 kts 148°
2026-04-12 04:22 39.11357 -104.81341 9551 ft 127 kts 148°
2026-04-12 04:22 39.10690 -104.80624 9333 ft 120 kts 148°
2026-04-12 04:22 39.10057 -104.79951 9188 ft 118 kts 146°
2026-04-12 04:22 39.09436 -104.79260 9170 ft 120 kts 144°
2026-04-12 04:23 39.08797 -104.78540 9176 ft 124 kts 146°
2026-04-12 04:23 39.08113 -104.77834 9147 ft 128 kts 149°
2026-04-12 04:23 39.07412 -104.77164 9180 ft 123 kts 147°
2026-04-12 04:23 39.06744 -104.76469 9153 ft 122 kts 148°
2026-04-12 04:24 39.06089 -104.75796 9157 ft 118 kts 147°
2026-04-12 04:24 39.05449 -104.75120 9160 ft 120 kts 146°
2026-04-12 04:24 39.04802 -104.74442 9147 ft 121 kts 148°
2026-04-12 04:24 39.04120 -104.73801 9181 ft 120 kts 148°
2026-04-12 04:25 39.03466 -104.73131 9165 ft 121 kts 148°
2026-04-12 04:25 39.02754 -104.72510 9131 ft 123 kts 156°
2026-04-12 04:25 39.02021 -104.71999 9155 ft 119 kts 159°
2026-04-12 04:25 39.01286 -104.71547 9140 ft 115 kts 168°
2026-04-12 04:26 39.00525 -104.71469 9118 ft 108 kts 192°
2026-04-12 04:26 38.99773 -104.71570 9026 ft 107 kts 193°
2026-04-12 04:26 38.99040 -104.71632 8929 ft 107 kts 188°
2026-04-12 04:26 38.98277 -104.71616 8822 ft 110 kts 185°
2026-04-12 04:27 38.97508 -104.71592 8827 ft 110 kts 185°
2026-04-12 04:27 38.96751 -104.71587 8830 ft 105 kts 186°
2026-04-12 04:27 38.96025 -104.71568 8805 ft 103 kts 184°
2026-04-12 04:27 38.95317 -104.71555 8681 ft 104 kts 187°
2026-04-12 04:28 38.94593 -104.71595 8488 ft 104 kts 189°
2026-04-12 04:28 38.93879 -104.71632 8339 ft 100 kts 187°
2026-04-12 04:28 38.93170 -104.71619 8219 ft 105 kts 183°
2026-04-12 04:28 38.92447 -104.71616 8098 ft 103 kts 184°
2026-04-12 04:29 38.91715 -104.71577 7938 ft 107 kts 183°
2026-04-12 04:29 38.90976 -104.71590 7842 ft 103 kts 186°
2026-04-12 04:29 38.90248 -104.71626 7702 ft 104 kts 184°
2026-04-12 04:29 38.89527 -104.71629 7544 ft 105 kts 181°
2026-04-12 04:30 38.88804 -104.71626 7437 ft 103 kts 181°
2026-04-12 04:30 38.88074 -104.71600 7282 ft 105 kts 180°
2026-04-12 04:30 38.87352 -104.71574 7145 ft 103 kts 179°
2026-04-12 04:30 38.86623 -104.71593 7000 ft 104 kts 183°
2026-04-12 04:31 38.85908 -104.71610 6874 ft 103 kts 179°
2026-04-12 04:31 38.85191 -104.71584 6736 ft 103 kts 179°
2026-04-12 04:31 38.84467 -104.71596 6607 ft 104 kts 180°
2026-04-12 04:31 38.83811 -104.71598 6493 ft 84 kts 180°
2026-04-12 04:32 38.83259 -104.71596 6347 ft 79 kts 176°
2026-04-12 04:32 38.82709 -104.71589 6250 ft 78 kts 177°
2026-04-12 04:32 38.82171 -104.71590 6166 ft 75 kts 178°
2026-04-12 04:32 38.81659 -104.71591 6139 ft 70 kts 176°
2026-04-12 04:33 38.81363 -104.71592 6119 ft 23 kts 182°
2026-04-12 04:33 38.81263 -104.71651 6115 ft 15 kts 262°
2026-04-12 04:33 38.81261 -104.71731 6113 ft 0 kts 269°
2026-04-12 04:34 38.81261 -104.71750 6113 ft 8 kts 270°
2026-04-12 04:34 38.81261 -104.71889 6111 ft 21 kts 270°
2026-04-12 04:34 38.81226 -104.71954 6110 ft 11 kts 177°
2026-04-12 04:34 38.81112 -104.71953 6105 ft 19 kts 180°
2026-04-12 04:35 38.80965 -104.71953 6097 ft 21 kts 181°
2026-04-12 04:35 38.80875 -104.71960 6094 ft 3 kts 262°
2026-04-12 04:35 38.80879 -104.71999 6093 ft 4 kts 283°
2026-04-12 04:35 38.80891 -104.72044 6093 ft 5 kts 271°
2026-04-12 04:36 38.80913 -104.72072 6094 ft 1 kts 62°